GW0035 Weather Reports


Display with metric or nautical units.
time (UTC)temp
F
wind
direction
speed
MPH
gust
MPH
rain 1hr
in
rain 24hr
in
rain mn
in
humidity
%
barometer
mb
20260904105312 94 203 5.0 5.0 0.00 0.00 0.00 79 996.3
20260904104312 95 225 4.0 4.0 0.00 0.00 0.00 79 996.3
20260904103812 94 270 4.0 4.0 0.00 0.00 0.00 79 996.3
20260904102812 94 225 4.0 4.0 0.00 0.00 0.00 79 996.3
20260904101812 94 0 4.0 4.0 0.00 0.00 0.00 79 996.3
20260904100812 94 203 4.0 4.0 0.00 0.00 0.00 80 996.3
20260904095813 96 203 3.0 3.0 0.00 0.00 0.00 78 996.3
20260904094812 96 225 4.0 4.0 0.00 0.00 0.00 77 996.3
20260904094312 95 225 4.0 4.0 0.00 0.00 0.00 80 996.3
20260904093812 95 225 4.0 4.0 0.00 0.00 0.00 79 996.6
20260904093312 95 248 4.0 4.0 0.00 0.00 0.00 78 996.6
20260904092812 95 270 5.0 5.0 0.00 0.00 0.00 79 996.6
20260904091813 94 68 4.0 4.0 0.00 0.00 0.00 79 996.6
20260904091312 93 225 4.0 4.0 0.00 0.00 0.00 79 996.6
20260904090312 93 135 4.0 4.0 0.00 0.00 0.00 80 996.6
20260904085812 92 203 5.0 5.0 0.00 0.00 0.00 80 997.0
20260904083813 93 270 4.0 4.0 0.00 0.00 0.00 80 997.0
20260904082812 92 270 4.0 4.0 0.00 0.00 0.00 81 997.3
20260904080313 92 293 5.0 5.0 0.00 0.00 0.00 81 997.3
20260904074312 93 90 7.0 7.0 0.00 0.00 0.00 80 997.6
20260904073319 92 270 10.0 10.0 0.00 0.00 0.00 80 998.0
20260904054220 91 203 4.0 4.0 0.00 0.00 0.00 83 999.3
20260904053220 91 248 5.0 5.0 0.00 0.00 0.00 85 999.7
20260904052220 89 293 5.0 5.0 0.00 0.00 0.00 86 999.7
20260904051220 88 293 5.0 5.0 0.00 0.00 0.00 89 999.7
20260904050720 88 293 5.0 5.0 0.00 0.00 0.00 89 999.7
20260904045720 87 203 5.0 5.0 0.00 0.00 0.00 88 999.7
20260904045220 88 270 4.0 4.0 0.00 0.00 0.00 88 1000.0
20260904044720 87 225 4.0 4.0 0.00 0.00 0.00 89 1000.0
20260904044205 88 293 4.0 4.0 0.00 0.00 0.00 88 999.7
20260904043203 88 270 4.0 4.0 0.00 0.00 0.00 88 1000.0
20260904042703 88 180 4.0 4.0 0.00 0.00 0.00 89 1000.0
20260904041704 87 248 3.0 3.0 0.00 0.00 0.00 89 1000.0
20260904040723 87 270 4.0 4.0 0.00 0.00 0.00 90 1000.0